Auburn, IN

4:15 AM EDT on October 21, 2019 (GMT -0400)
Auburn

Weather History for KGWB - August, 2019

Change the Weather History Date:

Wednesday, August 21, 2019

  Actual Average (WUND) Record (WUND)
Temperature  
Mean Temperature 72 °F -  
Max Temperature 80 °F - - (-1)
Min Temperature 64 °F - - (-1)
Cooling Degree Days 7    
Growing Degree Days 22 (Base 50)    
Moisture  
Dew Point 69 °F    
Average Humidity 86    
Maximum Humidity 100    
Minimum Humidity 65    
Precipitation  
Precipitation 0.00 in - - ()
Sea Level Pressure  
Sea Level Pressure 29.96 in    
Wind  
Wind Speed 3 mph (WSW)    
Max Wind Speed 10 mph    
Max Gust Speed 16 mph    
Visibility 8 miles    
Events Fog , Rain    
Averages and records for this station are not official NWS values.
T = Trace of Precipitation, MM = Missing Value Source: NWS Daily Summary

Daily Weather History Graph

Daily Weather History Graph

Search for Another Location

Airport or City:

Astronomy

Aug. 21, 2019 Rise Set
Actual Time 6:55 AM EDT 8:30 PM EDT
Civil Twilight 6:26 AM EDT 8:59 PM EDT
Nautical Twilight 5:50 AM EDT 9:35 PM EDT
Astronomical Twilight 5:13 AM EDT 10:12 PM EDT
Moon 11:44 PM EDT 12:33 PM EDT
Length of Visible Light 14h 33m
Length of Day
13h 35m
Waning Gibbous, 69% of the Moon is Illuminated
Aug 21
Waning Gibbous
Aug 23
Last Quarter
Aug 30
New
Sep 5
First Quarter
Sep 14
Full

Hourly Weather History & Observations

Time (EDT) Temp. Heat Index Dew Point Humidity Pressure Visibility Wind Dir Wind Speed Gust Speed Precip Events Conditions
12:15 AM 69.8 °F - 69.8 °F 100% 29.99 in 5.0 mi Calm Calm - N/A   Scattered Clouds
12:35 AM 69.8 °F - 69.8 °F 100% 29.99 in 7.0 mi Calm Calm - N/A   Scattered Clouds
12:55 AM 69.8 °F - 69.8 °F 100% 29.99 in 7.0 mi Calm Calm - N/A   Scattered Clouds
1:35 AM 69.8 °F - 69.8 °F 100% 29.98 in 10.0 mi Calm Calm - N/A   Scattered Clouds
1:55 AM 69.8 °F - 69.8 °F 100% 29.97 in 10.0 mi SSW 3.5 mph - N/A   Scattered Clouds
2:15 AM 69.8 °F - 69.8 °F 100% 29.97 in 10.0 mi SW 3.5 mph - N/A   Clear
2:35 AM 69.8 °F - 69.8 °F 100% 29.96 in 10.0 mi Calm Calm - N/A   Clear
2:55 AM 69.8 °F - 68.0 °F 94% 29.96 in 10.0 mi SSW 3.5 mph - N/A   Clear
3:15 AM 68.0 °F - 68.0 °F 100% 29.97 in 10.0 mi Calm Calm - N/A   Clear
3:35 AM 68.0 °F - 68.0 °F 100% 29.96 in 7.0 mi Calm Calm - N/A   Clear
3:55 AM 68.0 °F - 68.0 °F 100% 29.96 in 10.0 mi Calm Calm - N/A   Clear
4:15 AM 68.0 °F - 68.0 °F 100% 29.96 in 7.0 mi Calm Calm - N/A   Clear
4:35 AM 68.0 °F - 68.0 °F 100% 29.96 in 7.0 mi West 4.6 mph - N/A   Clear
4:55 AM 66.2 °F - 66.2 °F 100% 29.96 in 7.0 mi Calm Calm - N/A   Clear
5:15 AM 66.2 °F - 66.2 °F 100% 29.96 in 7.0 mi WNW 4.6 mph - N/A   Clear
5:35 AM 66.2 °F - 66.2 °F 100% 29.96 in 7.0 mi Calm Calm - N/A   Clear
5:55 AM 66.2 °F - 66.2 °F 100% 29.95 in 5.0 mi Calm Calm - N/A   Clear
6:15 AM 64.4 °F - 64.4 °F 100% 29.95 in 3.0 mi Calm Calm - N/A   Clear
6:35 AM 64.4 °F - 64.4 °F 100% 29.95 in 3.0 mi Calm Calm - N/A   Clear
6:55 AM 64.4 °F - 64.4 °F 100% 29.95 in 1.0 mi Calm Calm - N/A   Mist
7:15 AM 64.4 °F - 64.4 °F 100% 29.95 in 0.5 mi Calm Calm - N/A Fog Fog
7:35 AM 64.4 °F - 64.4 °F 100% 29.95 in 3.0 mi Calm Calm - N/A   Clear
7:55 AM 64.4 °F - 64.4 °F 100% 29.95 in 2.5 mi Calm Calm - N/A   Clear
8:15 AM 66.2 °F - 66.2 °F 100% 29.95 in 3.0 mi Calm Calm - N/A   Clear
8:35 AM 68.0 °F - 68.0 °F 100% 29.95 in 3.0 mi Calm Calm - N/A   Clear
8:55 AM 68.0 °F - 68.0 °F 100% 29.95 in 4.0 mi Calm Calm - N/A   Clear
9:15 AM 69.8 °F - 68.0 °F 94% 29.96 in 7.0 mi Calm Calm - N/A   Clear
9:30 AM 69.8 °F - 68.0 °F 94% 29.98 in 7.0 mi SW 4.6 mph - N/A   Clear
9:55 AM 71.6 °F - 69.8 °F 94% 29.98 in 10.0 mi WSW 5.8 mph - N/A   Scattered Clouds
10:15 AM 73.4 °F - 69.8 °F 88% 29.99 in 10.0 mi WSW 6.9 mph - N/A   Scattered Clouds
10:35 AM 73.4 °F - 69.8 °F 88% 29.99 in 10.0 mi WSW 4.6 mph - N/A   Scattered Clouds
10:55 AM 73.4 °F - 69.8 °F 88% 29.99 in 10.0 mi WSW 6.9 mph - N/A   Scattered Clouds
11:15 AM 73.4 °F - 69.8 °F 88% 29.99 in 10.0 mi West 4.6 mph - N/A   Clear
11:35 AM 77.0 °F - 69.8 °F 78% 29.99 in 10.0 mi West 6.9 mph - N/A   Clear
11:55 AM 77.0 °F - 69.8 °F 78% 29.99 in 10.0 mi West 5.8 mph - N/A   Scattered Clouds
12:15 PM 77.0 °F - 69.8 °F 78% 29.99 in 10.0 mi WSW 5.8 mph - N/A   Scattered Clouds
12:35 PM 77.0 °F - 69.8 °F 78% 29.99 in 10.0 mi West 5.8 mph - N/A   Scattered Clouds
12:55 PM 77.0 °F - 68.0 °F 74% 29.99 in 10.0 mi West 5.8 mph - N/A   Scattered Clouds
1:15 PM 78.8 °F - 69.8 °F 74% 29.99 in 10.0 mi SW 4.6 mph - N/A   Scattered Clouds
1:35 PM 78.8 °F - 68.0 °F 69% 29.99 in 10.0 mi WSW 8.1 mph - N/A   Scattered Clouds
1:55 PM 78.8 °F - 69.8 °F 74% 29.98 in 10.0 mi West 6.9 mph - N/A   Clear
2:15 PM 80.6 °F 83.2 °F 68.0 °F 65% 29.98 in 10.0 mi WSW 6.9 mph - N/A   Clear
2:35 PM 80.6 °F 83.2 °F 68.0 °F 65% 29.99 in 10.0 mi West 5.8 mph - N/A   Clear
2:55 PM 80.6 °F 83.9 °F 69.8 °F 70% 29.99 in 10.0 mi WSW 9.2 mph - N/A   Clear
3:15 PM 80.6 °F 83.2 °F 68.0 °F 65% 29.98 in 10.0 mi West 8.1 mph - N/A   Clear
3:35 PM 80.6 °F 83.2 °F 68.0 °F 65% 29.98 in 10.0 mi West 9.2 mph 16.1 mph N/A   Scattered Clouds
3:55 PM 80.6 °F 83.9 °F 69.8 °F 70% 29.98 in 10.0 mi West 9.2 mph 16.1 mph N/A   Scattered Clouds
4:15 PM 80.6 °F 83.2 °F 68.0 °F 65% 29.98 in 10.0 mi West 10.4 mph - N/A   Scattered Clouds
4:35 PM 80.6 °F 83.2 °F 68.0 °F 65% 29.97 in 10.0 mi West 9.2 mph 16.1 mph N/A   Scattered Clouds
4:55 PM 78.8 °F - 68.0 °F 69% 29.97 in 10.0 mi West 4.6 mph - N/A   Scattered Clouds
5:15 PM 80.6 °F 83.9 °F 69.8 °F 70% 29.97 in 10.0 mi WSW 4.6 mph - N/A   Scattered Clouds
5:35 PM 80.6 °F 83.9 °F 69.8 °F 70% 29.97 in 10.0 mi West 4.6 mph - N/A   Clear
5:55 PM 80.6 °F 83.9 °F 69.8 °F 70% 29.97 in 10.0 mi WSW 6.9 mph - N/A   Clear
6:15 PM 80.6 °F 83.9 °F 69.8 °F 70% 29.96 in 10.0 mi WSW 5.8 mph - N/A   Clear
6:35 PM 80.6 °F 83.9 °F 69.8 °F 70% 29.96 in 10.0 mi WSW 8.1 mph - N/A   Scattered Clouds
6:55 PM 80.6 °F 83.9 °F 69.8 °F 70% 29.95 in 10.0 mi WSW 4.6 mph - N/A   Clear
7:15 PM 80.6 °F 83.9 °F 69.8 °F 70% 29.94 in 10.0 mi WSW 4.6 mph - N/A   Clear
7:35 PM 78.8 °F - 69.8 °F 74% 29.93 in 10.0 mi WSW 3.5 mph - N/A   Clear
7:55 PM 78.8 °F - 69.8 °F 74% 29.91 in 10.0 mi Calm Calm - N/A   Clear
8:15 PM 77.0 °F - 69.8 °F 78% 29.91 in 10.0 mi Calm Calm - N/A   Clear
8:35 PM 73.4 °F - 71.6 °F 94% 29.89 in 10.0 mi Calm Calm - N/A   Clear
8:55 PM 75.2 °F - 69.8 °F 83% 29.91 in 10.0 mi SW 3.5 mph - N/A   Clear
9:15 PM 75.2 °F - 69.8 °F 83% 29.92 in 10.0 mi Calm Calm - N/A   Clear
9:35 PM 73.4 °F - 69.8 °F 88% 29.92 in 10.0 mi Calm Calm - N/A   Clear
9:55 PM 73.4 °F - 71.6 °F 94% 29.92 in 10.0 mi Calm Calm - N/A   Clear
10:15 PM 75.2 °F - 69.8 °F 83% 29.95 in 10.0 mi SW 3.5 mph - N/A   Mostly Cloudy
10:35 PM 75.2 °F - 69.8 °F 83% 29.95 in 10.0 mi SSW 4.6 mph - N/A   Mostly Cloudy
10:55 PM 75.2 °F - 69.8 °F 83% 29.95 in 10.0 mi SW 6.9 mph - N/A   Mostly Cloudy
11:15 PM 73.4 °F - 71.6 °F 94% 29.96 in 10.0 mi West 8.1 mph - N/A Rain Light Rain
11:35 PM 73.4 °F - 69.8 °F 88% 29.96 in 10.0 mi WSW 3.5 mph - N/A   Overcast
11:55 PM 73.4 °F - 69.8 °F 88% 29.97 in 10.0 mi WSW 4.6 mph - N/A   Overcast